User: anonymous   Login
Location: Unspecified
(0.0000°N, 0.0000°E)
Time: 07:18:39
(UTC+00:00)
Language:

LANDSAT 8 - Orbit

View from above orbital plane
View from above orbital plane
View from above satellite
View from above satellite

Ground track
Ground track

The orbit data is extracted from the following two-line orbital elements,

1 39084U 13008A   17291.83236574  .00000068  00000-0  25141-4 0  9995
2 39084  98.2120   0.6383 0001289  99.0716 261.0628 14.57110203249060
Epoch (UTC): 18 October 2017 19:58:36
Eccentricity: 0.0001289
inclination: 98.2120°
perigee height: 701 km
apogee height: 703 km
right ascension of ascending node: 0.6383°
argument of perigee: 99.0716°
revolutions per day: 14.57110203
mean anomaly at epoch: 261.0628°
orbit number at epoch: 24906

The dashed part of the orbit path shows where the satellite is in the earth's shadow,  

DLR